Flag for U.S.A. Weather past 2 weeks in Metairie, Louisiana, U.S.A.

Now
60 °F

Passing clouds.


Feels Like: 60 °F
Forecast: 51 / 70 °F
Wind: 9 mph from South

Location: New Orleans International Airport

Current Time: Jan 28, 2015 at 6:38:39 PM

Latest Report: Jan 28, 2015 at 5:53 PM


Visibility: 10 mi

Pressure: 30.25 "Hg

Humidity: 53%

Dew point: 43 °F

Location of MetairieLocation

Historic Weather in Metairie — Graph

°F

Metairie temperature yesterday

Maximum temperature yesterday: 73 °F (at 3:53 PM)
Minimum temperature yesterday: 47 °F (at 2:53 AM)
Average temperature yesterday: 58 °F

Past Weeks' High & Low Weather Summary

 TemperatureHumidityPressure
High73 °F (Jan 27, 3:53 PM)97% (Jan 20, 6:53 AM)30.36 "Hg (Jan 20, 6:53 AM)
Low36 °F (Jan 19, 6:53 AM)26% (Jan 18, 2:53 PM)29.87 "Hg (Jan 25, 5:53 PM)
Average51 °F69%30.14 "Hg
* Reported Jan 13 4:53 PM — Jan 28 4:53 PM, Metairie, Weather by CustomWeather, © 2014

Note: Actual official high and low records may vary slightly from our data, if they occured in-between our weather recording intervals... More about our weather records

Advertising

Metairie weather history for previous 24 hours

 ConditionsComfort  
Time TempWeatherWind HumidityBarometerVisibility
4:53 PM
Jan 28
65 °FPassing clouds.9 mph45%30.24 "Hg10 mi
3:53 PM67 °FPassing clouds.5 mph33%30.23 "Hg10 mi
2:53 PM67 °FPassing clouds.6 mph29%30.24 "Hg10 mi
1:53 PM67 °FPassing clouds.7 mph35%30.24 "Hg10 mi
12:53 PM65 °FSunny.6 mph39%30.26 "Hg10 mi
11:53 AM63 °FSunny.5 mph41%30.29 "Hg10 mi
10:53 AM60 °FSunny.9 mph46%30.29 "Hg10 mi
9:53 AM58 °FSunny.10 mph51%30.30 "Hg10 mi
8:53 AM54 °FSunny.9 mph55%30.29 "Hg10 mi
7:53 AM51 °FSunny.10 mph56%30.28 "Hg10 mi
6:53 AM50 °FSunny.9 mph61%30.25 "Hg10 mi
5:53 AM50 °FClear.6 mph63%30.24 "Hg10 mi
4:53 AM50 °FClear.7 mph68%30.21 "Hg10 mi
3:53 AM50 °FClear.8 mph66%30.20 "Hg10 mi
2:53 AM51 °FClear.7 mph61%30.20 "Hg10 mi
1:53 AM52 °FClear.8 mph61%30.19 "Hg10 mi
12:53 AM51 °FClear.No wind69%30.19 "Hg10 mi
11:53 PM
Jan 27
54 °FClear.5 mph59%30.19 "Hg10 mi
10:53 PM56 °FClear.5 mph55%30.17 "Hg10 mi
9:53 PM56 °FClear.No wind60%30.16 "Hg10 mi
8:53 PM55 °FClear.No wind64%30.14 "Hg10 mi
7:53 PM56 °FClear.No wind60%30.13 "Hg10 mi
6:53 PM64 °FClear.5 mph41%30.12 "Hg10 mi
Weather by CustomWeather, © 2014

See weather overviewHow to use our weather pages